Weather History for Rogers, AR

Change the Weather History Date:

Sunday, May 10, 2009

  Actual Average Record
Temperature  
Mean Temperature 58 °F -  
Max Temperature 64 °F 71 °F 84 °F (2005)
Min Temperature 53 °F 53 °F 37 °F (1997)
Degree Days  
Heating Degree Days 6    
Growing Degree Days 8 (Base 50)    
Moisture  
Dew Point 51 °F    
Average Humidity 77    
Maximum Humidity 94    
Minimum Humidity 65    
Precipitation  
Precipitation 0.01 in - - ()
Sea Level Pressure  
Sea Level Pressure 30.13 in    
Wind  
Wind Speed 10 mph (ENE)    
Max Wind Speed 16 mph    
Max Gust Speed 22 mph    
Visibility 10 miles    
Events Rain    
Averages and records for this station are not official NWS values.
T = Trace of Precipitation, MM = Missing Value Source: NWS Daily Summary

Daily Weather History Graph

Daily Weather History Graph

Search for Another Location

Airport:

Trip Planner

Search our weather history database for the weather conditions in past years. The results will help you decide how hot, cold, wet, or windy it might be!

Date:

Astronomy

May. 10, 2009 Rise Set
Actual Time 6:13 AM CDT 8:12 PM CDT
Civil Twilight 5:45 AM CDT 8:40 PM CDT
Nautical Twilight 5:11 AM CDT 9:15 PM CDT
Astronomical Twilight 4:34 AM CDT 9:52 PM CDT
Moon 10:09 PM CDT (5/10) 6:50 AM CDT (5/10)
Length of Visible Light 14h 55m
Length of Day
13h 58m
Full, 98% of the Moon is Illuminated
May 10
Full
May 17
Last Quarter
May 24
New
May 30
First Quarter
Jun 7
Full

Hourly Weather History & Observations

Time (CDT) Temp. Dew Point Humidity Pressure Visibility Wind Dir Wind Speed Gust Speed Precip Events Conditions
12:57 AM 57.0 °F 48.9 °F 74% 30.13 in 10.0 mi ENE 8.1 mph - N/A   Scattered Clouds
1:57 AM 55.9 °F 48.9 °F 77% 30.13 in 10.0 mi East 4.6 mph - N/A   Clear
2:57 AM 55.0 °F 48.9 °F 80% 30.13 in 10.0 mi ENE 5.8 mph - N/A   Overcast
3:57 AM 55.9 °F 48.9 °F 77% 30.12 in 10.0 mi ENE 8.1 mph - N/A   Mostly Cloudy
4:57 AM 55.9 °F 48.0 °F 75% 30.10 in 10.0 mi East 10.4 mph - N/A   Mostly Cloudy
5:57 AM 55.9 °F 46.9 °F 72% 30.12 in 10.0 mi East 9.2 mph - N/A   Overcast
7:57 AM 57.0 °F 48.0 °F 72% 30.14 in 10.0 mi East 10.4 mph - N/A   Overcast
8:57 AM 60.1 °F 48.9 °F 67% 30.15 in 10.0 mi East 8.1 mph - N/A   Scattered Clouds
9:57 AM 59.0 °F 50.0 °F 72% 30.20 in 10.0 mi NE 6.9 mph - N/A   Overcast
10:57 AM 57.9 °F 52.0 °F 81% 30.23 in 10.0 mi NNE 8.1 mph - 0.00 in   Overcast
11:57 AM 59.0 °F 53.1 °F 81% 30.20 in 10.0 mi NE 11.5 mph - 0.01 in   Mostly Cloudy
12:57 PM 61.0 °F 53.1 °F 75% 30.13 in 10.0 mi East 15.0 mph - N/A   Partly Cloudy
1:57 PM 61.0 °F 53.1 °F 75% 30.11 in 10.0 mi East 13.8 mph - N/A   Overcast
2:27 PM 62.6 °F 53.6 °F 72% 30.12 in 10.0 mi East 13.8 mph 21.9 mph N/A   Mostly Cloudy
2:57 PM 64.4 °F 53.6 °F 68% 30.11 in 10.0 mi East 13.8 mph 18.4 mph N/A   Mostly Cloudy
3:41 PM 62.6 °F 53.6 °F 72% 30.10 in 10.0 mi ENE 12.7 mph - N/A   Overcast
3:49 PM 62.6 °F 53.6 °F 72% 30.10 in 10.0 mi East 9.2 mph - N/A   Overcast
3:57 PM 63.0 °F 54.0 °F 72% 30.08 in 10.0 mi ENE 8.1 mph - N/A   Overcast
4:57 PM 63.0 °F 51.1 °F 65% 30.09 in 10.0 mi East 9.2 mph - N/A   Overcast
5:57 PM 61.0 °F 51.1 °F 70% 30.09 in 10.0 mi ENE 13.8 mph 19.6 mph 0.00 in   Overcast
6:32 PM 60.8 °F 50.0 °F 68% 30.11 in 10.0 mi ENE 12.7 mph - N/A   Overcast
6:42 PM 60.8 °F 50.0 °F 68% 30.11 in 10.0 mi East 10.4 mph 20.7 mph N/A   Overcast
6:52 PM 60.8 °F 50.0 °F 68% 30.11 in 10.0 mi East 11.5 mph 18.4 mph N/A   Overcast
6:57 PM 60.1 °F 50.0 °F 69% 30.09 in 10.0 mi East 9.2 mph 18.4 mph N/A   Overcast
7:03 PM 60.8 °F 50.0 °F 68% 30.11 in 10.0 mi ENE 10.4 mph - N/A   Overcast
7:08 PM 60.8 °F 50.0 °F 68% 30.11 in 10.0 mi ENE 10.4 mph - N/A   Overcast
7:17 PM 59.0 °F 50.0 °F 72% 30.12 in 10.0 mi ENE 9.2 mph 17.3 mph N/A   Overcast
7:52 PM 57.2 °F 53.6 °F 88% 30.12 in 9.0 mi NE 12.7 mph - 0.00 in Rain Light Rain
7:57 PM 57.0 °F 53.1 °F 87% 30.12 in 9.0 mi ENE 11.5 mph - 0.00 in Rain Light Rain
8:04 PM 55.4 °F 53.6 °F 94% 30.12 in 8.0 mi NE 12.7 mph - 0.00 in Rain Light Rain
8:31 PM 55.4 °F 53.6 °F 94% 30.15 in 9.0 mi NE 13.8 mph - 0.00 in Rain Light Rain
8:57 PM 55.0 °F 53.1 °F 93% 30.14 in 7.0 mi ENE 10.4 mph - 0.00 in Rain Light Rain
9:31 PM 53.6 °F 51.8 °F 94% 30.16 in 9.0 mi ENE 16.1 mph - 0.00 in Rain Light Rain
9:39 PM 53.6 °F 51.8 °F 94% 30.16 in 10.0 mi ENE 13.8 mph - 0.00 in Rain Light Rain
9:57 PM 54.0 °F 50.0 °F 86% 30.16 in 10.0 mi East 11.5 mph - 0.00 in   Overcast
10:03 PM 53.6 °F 50.0 °F 88% 30.17 in 10.0 mi East 10.4 mph - N/A   Overcast
10:57 PM 54.0 °F 50.0 °F 86% 30.17 in 10.0 mi East 9.2 mph - N/A   Overcast
11:57 PM 54.0 °F 48.0 °F 80% 30.16 in 10.0 mi ESE 11.5 mph 19.6 mph 0.00 in Rain Light Rain